Wind_Speed
24 24 25 25 25 25 25 25 25 24 25 26 26 26 27 27 27 27 28 29 30 30 29 29 27 26 25 24 23 22 21 20 19 18 18 17 17 16 16 17 18 17 17
25 25 25 24 24 24 24 24 24 23 23 23 24 24 24 23 23 24 25 28 30 30 30 29 29 29 28 27 26 26 25 24 22 21 20 20 20 20 19 19 19 19 19
25 25 24 24 24 24 24 23 23 22 22 21 21 21 22 22 22 22 23 24 27 29 29 30 30 31 31 30 29 29 28 27 26 25 24 23 22 23 22 21 21 21 20
26 26 25 25 25 25 24 23 23 21 21 21 20 20 20 21 21 21 22 22 23 26 28 28 29 31 31 32 31 31 32 31 29 27 26 25 24 24 25 24 23 23 23
26 26 26 25 25 24 24 23 22 21 20 19 19 19 19 19 19 20 20 21 23 24 26 27 28 29 31 32 32 33 33 34 33 31 29 28 26 26 26 27 26 26 25
27 26 26 26 25 24 24 23 22 21 20 19 19 18 18 18 18 18 19 20 21 21 23 25 27 29 30 32 32 33 33 34 34 33 32 30 29 28 28 29 29 28 28
27 27 26 26 25 25 24 23 23 22 22 20 19 18 18 18 18 18 18 19 20 21 21 23 25 27 29 31 32 33 33 34 35 35 34 33 31 30 30 29 30 30 30
28 28 27 26 26 26 25 25 23 23 22 21 19 18 18 19 19 19 19 20 20 21 21 22 24 26 28 30 31 32 33 34 36 36 36 35 34 32 31 30 30 31 31
29 29 26 26 27 27 27 26 25 24 23 22 21 20 19 19 20 20 21 20 20 21 22 23 24 25 27 28 29 32 32 33 35 36 36 35 35 33 32 31 31 32 32
30 29 28 28 28 28 28 27 27 26 25 24 24 22 21 20 20 20 22 21 21 21 22 23 24 24 26 26 27 29 31 32 33 35 36 36 35 34 34 32 31 32 33
32 31 30 31 31 30 30 30 29 28 27 26 26 25 24 23 21 20 21 22 22 22 22 22 23 24 25 26 28 29 29 30 31 33 34 35 35 35 34 33 32 32 32
35 35 34 34 34 33 33 32 31 31 30 29 28 27 27 26 24 22 21 22 23 23 23 23 24 24 24 25 26 28 29 30 31 32 33 34 34 34 34 33 32 32 32
40 40 39 38 37 37 37 36 35 34 33 32 31 30 29 28 27 26 24 23 23 24 24 24 25 25 24 25 25 26 28 29 30 32 33 33 33 35 34 34 34 33 32
45 44 44 42 41 41 40 39 38 37 36 35 34 33 32 31 30 28 27 25 24 24 25 25 25 25 25 25 25 25 26 28 29 30 31 32 33 34 34 33 33 32 31
50 49 48 47 46 44 44 42 40 40 39 38 37 36 34 33 32 31 29 28 26 24 24 26 26 25 25 25 25 25 25 26 27 28 29 30 32 32 32 32 32 32 31
54 53 52 51 50 49 47 46 44 43 42 41 40 38 37 35 34 32 31 30 28 26 24 25 26 25 24 25 25 24 25 26 26 27 28 29 30 31 31 31 31 31 31
59 58 57 55 54 53 52 50 48 46 45 44 42 41 39 37 36 34 33 31 30 28 26 25 26 25 24 24 24 24 24 23 24 25 27 27 28 30 30 30 30 30 30
62 61 60 59 59 58 56 54 52 50 48 46 44 43 41 39 37 36 34 32 31 29 27 25 25 25 24 23 24 24 23 23 24 25 26 26 27 28 29 30 30 30 30
65 65 65 64 63 62 60 59 57 54 51 49 47 45 43 42 39 37 35 33 31 30 28 26 25 24 23 23 24 24 23 23 24 25 26 27 27 27 29 29 30 29 29
66 67 67 67 66 65 63 61 60 57 55 52 50 48 46 44 42 39 36 34 32 30 29 27 25 24 23 23 23 23 23 24 24 25 25 26 27 27 28 28 29 29 29
59 61 63 65 66 65 65 64 62 59 57 55 53 51 49 46 43 41 38 36 33 31 29 27 25 24 23 22 22 23 23 24 24 24 25 26 27 27 26 26 27 28 29
48 49 52 56 59 62 63 64 64 62 59 57 56 53 50 48 45 42 40 37 34 32 29 27 25 24 23 23 22 22 22 23 24 24 25 25 26 26 26 26 26 27 27
39 38 40 43 47 50 54 58 60 60 59 58 57 55 52 50 47 44 40 38 35 32 30 28 25 23 23 23 22 22 22 23 24 24 24 24 24 25 26 25 25 26 27
36 35 35 35 37 40 43 47 51 54 55 56 56 55 53 50 47 44 41 39 36 33 30 28 26 24 23 22 22 22 22 23 23 24 25 24 24 25 26 26 25 24 25
34 33 33 32 32 33 35 38 42 46 48 50 52 53 52 50 48 45 42 39 36 33 31 28 26 24 23 22 22 23 23 23 24 24 25 25 24 24 24 25 25 25 25
33 32 32 31 30 29 30 32 34 38 42 45 47 50 50 49 47 45 42 39 36 33 31 29 26 24 23 23 22 22 22 23 23 23 24 25 25 24 24 25 24 24 25
Wind_Direction
288 287 286 284 282 281 281 281 281 281 280 279 279 278 274 271 268 267 265 264 263 258 254 252 252 252 252 252 251 250 251 252 251 250 251 250 249 249 248 246 244 243 241
286 285 284 281 280 279 279 279 281 282 281 280 281 279 276 275 273 269 267 265 262 260 256 254 253 252 251 251 250 248 248 250 251 251 251 251 249 248 247 245 242 243 242
286 284 282 281 281 280 280 280 281 281 280 279 279 277 277 275 274 273 270 267 262 259 258 256 254 251 250 249 248 247 247 248 250 251 251 250 248 247 245 243 241 241 241
286 284 283 282 282 281 281 281 281 279 279 278 278 279 279 278 276 276 271 271 265 261 258 256 255 251 249 249 249 247 247 247 247 249 250 250 248 246 243 241 241 240 241
286 285 284 282 280 280 280 280 280 279 278 279 279 279 279 278 279 278 274 271 269 264 258 255 254 251 249 250 249 247 246 246 245 245 246 248 248 246 243 241 241 241 240
286 283 280 279 278 278 278 278 278 277 276 277 280 281 281 280 279 280 280 276 274 269 263 259 255 251 250 250 248 247 245 245 243 243 244 245 246 246 244 242 242 241 240
285 282 279 277 276 277 276 275 276 276 274 274 277 280 282 281 279 281 282 281 278 274 271 265 260 258 255 252 250 248 246 244 242 242 242 243 245 245 244 242 241 241 241
284 283 280 276 276 275 273 273 273 275 274 273 274 277 280 281 280 280 281 282 280 278 274 271 267 262 259 256 253 250 247 244 243 244 243 242 243 244 243 242 242 241 241
283 283 281 277 276 276 275 273 271 272 272 271 272 273 274 277 281 282 281 282 283 280 277 274 272 268 264 259 254 252 249 247 245 244 243 241 241 242 242 242 241 240 241
284 282 280 278 276 276 274 272 271 270 269 270 271 272 273 275 276 279 282 282 283 282 280 277 274 269 264 261 257 254 252 250 246 243 242 242 241 242 241 241 240 241 240
281 281 279 277 275 274 273 272 270 269 269 269 270 271 273 275 276 276 279 282 283 283 283 281 277 274 269 263 259 255 252 249 247 244 241 240 239 241 239 238 239 239 240
278 278 276 275 273 272 271 269 269 269 269 269 269 270 272 275 277 277 277 279 282 284 285 283 280 276 271 266 262 256 251 249 248 244 241 239 238 237 237 236 238 238 238
276 275 274 273 272 271 269 267 267 267 267 267 268 268 269 272 274 276 276 276 278 281 283 284 282 279 272 268 263 258 251 249 248 244 241 239 237 235 235 236 237 237 237
275 275 273 271 270 269 268 265 264 264 264 265 266 267 268 269 271 272 274 275 276 278 280 281 281 280 273 267 264 259 254 251 249 244 241 236 234 235 233 235 235 235 234
275 273 272 269 268 267 266 265 264 262 262 264 264 265 266 267 269 270 271 273 274 275 277 278 279 278 273 267 263 258 257 254 248 243 240 236 235 233 233 232 232 232 234
274 272 271 270 268 266 266 264 262 262 262 262 262 262 264 265 266 268 269 271 272 273 274 275 276 276 273 266 261 259 257 255 247 241 237 235 232 231 229 231 232 233 235
273 271 270 268 267 266 264 263 261 261 261 260 260 260 261 263 264 265 267 268 270 270 272 272 273 272 271 266 259 257 256 252 246 241 235 233 232 230 229 231 232 234 234
271 270 268 266 265 264 263 262 260 259 259 258 258 258 258 259 260 262 264 266 267 268 270 269 270 269 267 264 259 256 253 248 244 239 235 233 233 231 231 231 232 234 234
269 268 266 265 264 262 261 260 258 257 256 256 255 255 255 255 257 259 260 262 264 266 266 267 267 266 265 261 257 254 249 244 240 238 236 234 232 231 230 230 231 233 234
269 266 265 263 261 260 259 258 257 255 254 253 252 252 252 253 254 255 256 259 261 262 263 263 263 263 262 260 256 252 248 243 239 238 236 233 232 233 233 232 232 232 233
270 267 264 261 259 258 256 256 255 254 252 251 250 249 250 250 250 251 252 255 257 259 259 259 260 259 258 258 254 251 247 242 238 237 236 233 232 231 231 230 231 231 233
272 269 266 262 260 257 255 254 253 251 250 249 247 247 247 246 246 247 248 250 253 255 256 256 257 256 254 253 252 249 246 242 237 237 235 233 231 231 231 230 231 233 233
272 270 268 265 262 259 256 253 251 249 248 246 245 244 244 243 243 244 244 246 249 251 252 252 253 253 251 249 249 247 244 240 237 235 233 232 233 232 230 231 233 232 232
271 269 269 269 266 262 258 254 250 247 244 243 241 240 239 239 238 238 239 241 244 245 246 248 250 250 247 246 244 243 241 238 236 235 234 234 232 231 231 230 229 230 231
272 269 268 269 268 265 260 256 251 245 241 239 237 235 233 233 233 234 234 236 239 240 241 243 245 246 245 243 242 243 240 236 234 233 233 233 231 230 230 230 231 234 234
271 269 267 266 266 265 262 257 251 245 240 236 233 230 227 227 228 228 230 232 235 236 236 238 240 242 243 241 240 240 236 232 229 231 232 230 229 231 232 233 234 234 234
Height
5871 5869 5868 5866 5865 5863 5863 5862 5861 5860 5859 5858 5857 5857 5856 5855 5855 5856 5856 5857 5857 5858 5858 5860 5862 5863 5865 5866 5868 5869 5870 5872 5873 5874 5875 5876 5877 5878 5880 5881 5883 5884 5886
5865 5863 5862 5860 5858 5857 5857 5856 5855 5854 5853 5852 5851 5850 5850 5849 5849 5849 5850 5850 5850 5850 5851 5853 5854 5855 5857 5859 5861 5863 5865 5866 5868 5869 5870 5872 5873 5874 5876 5877 5879 5880 5882
5859 5857 5855 5853 5852 5851 5850 5849 5849 5848 5848 5847 5846 5845 5845 5844 5844 5844 5843 5843 5842 5843 5844 5845 5847 5848 5849 5851 5853 5855 5858 5860 5862 5864 5865 5867 5868 5869 5871 5872 5874 5876 5878
5851 5850 5848 5847 5845 5844 5843 5843 5842 5842 5842 5841 5840 5840 5839 5838 5838 5837 5837 5836 5835 5836 5837 5837 5839 5840 5841 5843 5845 5848 5850 5852 5855 5857 5859 5861 5862 5864 5866 5868 5869 5871 5873
5844 5843 5841 5840 5839 5838 5837 5837 5836 5836 5835 5835 5835 5834 5833 5832 5832 5831 5830 5830 5829 5829 5829 5830 5831 5832 5834 5836 5837 5839 5842 5844 5847 5850 5852 5854 5856 5858 5860 5862 5864 5866 5868
5837 5836 5834 5834 5833 5832 5831 5831 5830 5830 5830 5830 5829 5828 5827 5827 5826 5825 5825 5824 5823 5822 5823 5823 5824 5825 5826 5828 5829 5831 5833 5836 5839 5842 5844 5847 5849 5852 5854 5856 5858 5860 5863
5829 5828 5827 5827 5826 5826 5825 5825 5824 5824 5824 5824 5824 5823 5822 5821 5821 5820 5819 5818 5817 5816 5816 5816 5817 5818 5819 5821 5822 5824 5825 5828 5831 5833 5836 5839 5842 5844 5847 5849 5852 5854 5857
5822 5821 5820 5820 5819 5819 5819 5819 5818 5818 5817 5817 5818 5817 5817 5816 5815 5815 5814 5812 5811 5810 5810 5810 5810 5811 5811 5812 5814 5815 5817 5820 5822 5825 5828 5831 5834 5837 5840 5842 5845 5848 5850
5814 5813 5812 5812 5812 5812 5812 5812 5812 5812 5811 5811 5811 5812 5811 5811 5809 5808 5807 5807 5806 5805 5804 5804 5804 5804 5804 5805 5806 5807 5809 5811 5814 5817 5820 5823 5826 5829 5832 5835 5838 5841 5844
5807 5805 5805 5805 5805 5804 5804 5804 5804 5804 5805 5804 5804 5805 5805 5804 5804 5803 5801 5800 5800 5799 5798 5797 5796 5797 5797 5798 5799 5800 5801 5803 5805 5808 5811 5815 5818 5821 5824 5828 5831 5834 5837
5798 5797 5797 5797 5796 5796 5796 5796 5796 5796 5797 5797 5797 5797 5797 5797 5797 5797 5796 5794 5793 5792 5791 5790 5789 5790 5790 5790 5791 5792 5794 5796 5798 5800 5803 5806 5810 5813 5816 5820 5823 5826 5830
5789 5788 5788 5787 5787 5787 5787 5787 5787 5788 5788 5788 5789 5789 5789 5789 5789 5789 5790 5788 5787 5785 5784 5783 5783 5782 5782 5783 5784 5785 5786 5788 5790 5793 5795 5798 5801 5805 5809 5812 5816 5819 5822
5778 5778 5777 5777 5777 5777 5777 5777 5778 5778 5779 5779 5780 5780 5781 5781 5781 5781 5782 5781 5780 5779 5778 5776 5775 5775 5775 5776 5776 5777 5779 5781 5783 5785 5787 5790 5793 5797 5801 5805 5808 5812 5815
5765 5765 5765 5765 5765 5765 5765 5766 5767 5768 5768 5769 5770 5771 5771 5772 5772 5773 5773 5774 5774 5773 5771 5770 5768 5768 5768 5768 5769 5770 5771 5773 5775 5777 5780 5783 5786 5790 5793 5797 5801 5804 5808
5751 5751 5750 5751 5752 5752 5753 5753 5754 5756 5757 5758 5760 5761 5762 5763 5763 5764 5764 5765 5766 5766 5765 5763 5762 5761 5761 5761 5762 5763 5764 5766 5768 5770 5773 5776 5779 5782 5786 5790 5793 5797 5801
5734 5734 5734 5735 5736 5737 5739 5740 5742 5743 5745 5747 5748 5750 5752 5753 5754 5755 5755 5756 5757 5758 5758 5756 5754 5754 5753 5754 5755 5756 5757 5759 5760 5763 5765 5769 5772 5775 5779 5783 5786 5790 5794
5715 5716 5717 5718 5719 5720 5723 5725 5727 5729 5731 5734 5736 5738 5741 5742 5744 5745 5746 5747 5748 5749 5750 5749 5747 5747 5746 5747 5748 5749 5750 5752 5753 5756 5758 5761 5764 5768 5772 5776 5779 5783 5786
5695 5695 5697 5698 5700 5702 5705 5708 5711 5714 5717 5720 5723 5725 5728 5731 5733 5735 5736 5738 5739 5740 5741 5741 5740 5739 5739 5740 5741 5742 5744 5745 5747 5749 5752 5755 5758 5761 5765 5768 5772 5776 5779
5673 5673 5675 5677 5679 5682 5685 5689 5693 5697 5701 5705 5708 5712 5716 5719 5722 5724 5726 5728 5729 5731 5732 5733 5733 5732 5733 5733 5734 5736 5737 5739 5741 5743 5746 5748 5751 5755 5758 5761 5765 5769 5772
5649 5650 5651 5654 5657 5660 5664 5668 5673 5678 5684 5688 5693 5698 5702 5706 5710 5713 5716 5718 5720 5722 5723 5724 5725 5725 5726 5726 5727 5729 5731 5733 5735 5737 5740 5742 5745 5748 5752 5755 5758 5762 5765
5625 5626 5628 5630 5633 5637 5642 5647 5653 5659 5665 5670 5676 5682 5688 5693 5697 5701 5705 5708 5710 5712 5714 5716 5717 5718 5719 5719 5721 5722 5724 5726 5728 5731 5733 5736 5739 5742 5745 5748 5752 5755 5758
5606 5606 5606 5608 5611 5615 5620 5625 5631 5638 5645 5652 5659 5665 5672 5678 5684 5689 5694 5697 5700 5703 5706 5707 5709 5710 5711 5713 5714 5715 5718 5720 5722 5725 5727 5730 5733 5736 5739 5742 5745 5748 5752
5590 5590 5590 5591 5592 5595 5599 5603 5610 5617 5625 5633 5640 5648 5655 5663 5670 5676 5682 5686 5690 5693 5697 5699 5701 5703 5704 5706 5707 5709 5711 5713 5716 5719 5721 5724 5727 5730 5733 5736 5739 5742 5745
5577 5577 5577 5577 5578 5579 5581 5585 5591 5598 5606 5614 5622 5630 5639 5648 5656 5663 5669 5675 5680 5684 5687 5690 5693 5695 5697 5699 5701 5703 5704 5707 5709 5712 5715 5718 5721 5724 5727 5730 5733 5736 5739
5564 5565 5565 5565 5566 5566 5568 5571 5574 5580 5588 5596 5604 5613 5623 5633 5642 5650 5657 5664 5669 5674 5678 5681 5684 5687 5689 5691 5693 5696 5698 5700 5703 5706 5709 5712 5715 5718 5721 5724 5727 5730 5733
5552 5552 5553 5554 5555 5556 5556 5558 5561 5566 5573 5580 5588 5597 5608 5618 5628 5637 5645 5652 5659 5664 5669 5673 5676 5679 5682 5684 5687 5689 5692 5694 5697 5700 5703 5706 5709 5712 5715 5718 5721 5724 5727